Voltar ao catálogo

COSMOS 2251 DEB

AtivoLEO
NORAD 34681·DEBRIS·🇷🇺 Russia

Lançado Jun 16, 1993 de Plesetsk Cosmodrome

Loading…

Próximas Passagens (próximas 24 horas)

TLE

AtualizadoSource: Space-Track

Época: Sep 14, 2026, 00:49 UTC

1 34681U 93036YB  26257.03431934  .00006188  00000-0  66975-3 0  9991
2 34681  74.0586 103.6497 0022884  97.7848  53.8938 14.88270919933607

Acompanhe COSMOS 2251 DEB em tempo real com AllMySat

Download on the App Store